Date String (YYYY-MM-DD hh:mm:ss) UTC,Instrument flags,Ambient pressure (hPa),Sample flow (lpm),Bypass flow (lpm),Sample temperature (°C),Ambient temperature (°C),ASC tube jacket temperature (°C),LED temperature (°C),Box temperature (°C),Sample RH (%),Span deviation,Mass concentration (μg/m³),Mass concentration (μg/m³),Mass concentration (μg/m³)
DateTimeUTC,F1_M11,P_M11,Q1_M11,Q2_M11,T1_M11,T2_M11,T3_M11,T4_M11,T5_M11,U1_M11,ZSPAN_M11,X2_M11,X0_M11,X1_M11
2022-06-01 23:00:00,,0829.8,5.00,0.00,28.0,27.1,00.0,36.9,29.9,20.8,0000.0,0003.49,0004.28,0003.37
2022-06-01 23:01:00,,0829.8,4.99,0.00,28.0,27.1,00.0,36.9,29.9,21.5,0000.0,0003.46,0004.19,0003.35
2022-06-01 23:02:00,,0829.8,4.99,0.00,28.1,27.1,00.0,36.9,30.0,20.9,0000.0,0003.45,0004.18,0003.35
2022-06-01 23:03:00,,0829.8,5.01,0.00,28.1,27.2,00.0,36.9,30.0,20.8,0000.0,0003.43,0004.14,0003.34
2022-06-01 23:04:00,,0829.8,5.01,0.00,28.1,27.2,00.0,36.9,30.0,21.1,0000.0,0003.40,0004.07,0003.31
2022-06-01 23:05:00,,0829.7,5.03,0.00,28.1,27.2,00.0,37.0,30.0,20.8,0000.0,0003.38,0004.05,0003.29
2022-06-01 23:06:00,,0829.8,5.00,0.00,28.1,27.2,00.0,37.0,30.0,20.9,0000.0,0003.36,0003.95,0003.27
2022-06-01 23:07:00,,0829.7,4.99,0.00,28.1,27.2,00.0,37.0,30.0,20.9,0000.0,0003.38,0003.96,0003.27
2022-06-01 23:08:00,,0829.8,4.99,0.00,28.1,27.3,00.0,37.0,30.1,20.7,0000.0,0003.41,0004.37,0003.29
2022-06-01 23:09:00,,0829.8,5.00,0.00,28.2,27.3,00.0,37.0,30.1,20.6,0000.0,0003.43,0005.42,0003.30
2022-06-01 23:10:00,,0829.8,5.00,0.00,28.2,27.3,00.0,37.0,30.1,20.5,0000.0,0003.47,0005.49,0003.33
2022-06-01 23:11:00,,0829.8,5.00,0.00,28.2,27.3,00.0,37.0,30.1,20.7,0000.0,0003.52,0005.62,0003.37
2022-06-01 23:12:00,,0829.8,5.00,0.00,28.2,27.3,00.0,37.0,30.1,20.4,0000.0,0003.57,0005.71,0003.41
2022-06-01 23:13:00,,0829.8,5.01,0.00,28.2,27.3,00.0,37.0,30.1,20.9,0000.0,0003.61,0005.79,0003.45
2022-06-01 23:14:00,,0829.8,5.00,0.00,28.2,27.3,00.0,37.0,30.1,20.7,0000.0,0003.65,0005.90,0003.48
2022-06-01 23:15:00,,0829.8,4.99,0.00,28.2,27.3,00.0,37.1,30.1,20.4,0000.0,0003.72,0006.06,0003.54
2022-06-01 23:16:00,,0829.7,5.00,0.00,28.2,27.2,00.0,37.1,30.0,20.4,0000.0,0003.77,0006.18,0003.58
2022-06-01 23:17:00,,0829.7,5.00,0.00,28.2,27.2,00.0,37.1,30.0,20.5,0000.0,0003.83,0006.27,0003.63
2022-06-01 23:18:00,,0829.7,5.00,0.00,28.2,27.2,00.0,37.1,30.1,20.7,0000.0,0003.84,0006.20,0003.66
2022-06-01 23:19:00,,0829.7,5.00,0.00,28.2,27.2,00.0,37.1,30.1,20.6,0000.0,0003.82,0005.82,0003.66
2022-06-01 23:20:00,,0829.7,5.01,0.00,28.2,27.2,00.0,37.1,30.1,20.6,0000.0,0003.83,0004.96,0003.66
2022-06-01 23:21:00,,0829.6,5.00,0.00,28.2,27.3,00.0,37.1,30.1,20.6,0000.0,0003.84,0005.00,0003.67
2022-06-01 23:22:00,,0829.6,5.01,0.00,28.2,27.3,00.0,37.1,30.1,20.9,0000.0,0003.83,0004.94,0003.67
2022-06-01 23:23:00,,0829.7,5.01,0.00,28.3,27.3,00.0,37.1,30.2,20.7,0000.0,0003.83,0005.05,0003.68
2022-06-01 23:24:00,,0829.7,5.00,0.00,28.3,27.3,00.0,37.1,30.2,20.5,0000.0,0003.84,0005.51,0003.69
2022-06-01 23:25:00,,0829.7,5.00,0.00,28.3,27.4,00.0,37.1,30.2,20.4,0000.0,0003.85,0005.50,0003.71
2022-06-01 23:26:00,,0829.7,4.99,0.00,28.3,27.4,00.0,37.1,30.2,20.5,0000.0,0003.84,0005.46,0003.71
2022-06-01 23:27:00,,0829.7,5.00,0.00,28.3,27.4,00.0,37.1,30.2,20.6,0000.0,0003.83,0005.53,0003.70
2022-06-01 23:28:00,,0829.7,5.00,0.00,28.3,27.4,00.0,37.2,30.2,21.1,0000.0,0003.82,0005.61,0003.69
2022-06-01 23:29:00,,0829.7,5.00,0.00,28.3,27.4,00.0,37.2,30.2,20.9,0000.0,0003.82,0005.64,0003.69
2022-06-01 23:30:00,,0829.6,5.00,0.00,28.4,27.5,00.0,37.2,30.3,20.6,0000.0,0003.85,0005.96,0003.70
2022-06-01 23:31:00,,0829.6,5.00,0.00,28.4,27.5,00.0,37.2,30.3,20.6,0000.0,0003.87,0005.89,0003.72
2022-06-01 23:32:00,,0829.7,5.00,0.00,28.4,27.5,00.0,37.2,30.3,20.8,0000.0,0003.85,0005.77,0003.72
2022-06-01 23:33:00,,0829.6,5.01,0.00,28.4,27.5,00.0,37.2,30.2,20.7,0000.0,0003.84,0005.77,0003.72
2022-06-01 23:34:00,,0829.7,4.99,0.00,28.4,27.5,00.0,37.2,30.3,20.4,0000.0,0003.85,0005.86,0003.72
2022-06-01 23:35:00,,0829.7,5.00,0.00,28.4,27.4,00.0,37.2,30.3,20.5,0000.0,0003.86,0005.45,0003.72
2022-06-01 23:36:00,,0829.6,5.01,0.00,28.4,27.4,00.0,37.2,30.2,20.6,0000.0,0003.86,0005.57,0003.72
2022-06-01 23:37:00,,0829.7,5.01,0.00,28.4,27.4,00.0,37.2,30.3,20.5,0000.0,0003.87,0005.60,0003.71
2022-06-01 23:38:00,,0829.6,5.00,0.00,28.4,27.4,00.0,37.3,30.3,20.6,0000.0,0003.88,0005.55,0003.72
2022-06-01 23:39:00,,0829.6,5.00,0.00,28.4,27.5,00.0,37.3,30.3,20.9,0000.0,0003.88,0005.39,0003.74
2022-06-01 23:40:00,,0829.6,5.01,0.00,28.4,27.5,00.0,37.3,30.3,20.5,0000.0,0003.90,0005.40,0003.76
2022-06-01 23:41:00,,0829.6,5.00,0.00,28.4,27.5,00.0,37.3,30.3,20.4,0000.0,0003.90,0005.15,0003.77
2022-06-01 23:42:00,,0829.6,5.00,0.00,28.4,27.5,00.0,37.3,30.3,20.5,0000.0,0003.89,0005.14,0003.77
2022-06-01 23:43:00,,0829.7,4.99,0.00,28.4,27.5,00.0,37.3,30.3,20.9,0000.0,0003.91,0005.28,0003.77
2022-06-01 23:44:00,,0829.7,4.99,0.00,28.4,27.5,00.0,37.3,30.3,20.9,0000.0,0003.92,0005.34,0003.76
2022-06-01 23:45:00,,0829.6,5.00,0.00,28.4,27.5,00.0,37.3,30.3,20.8,0000.0,0003.94,0005.37,0003.75
2022-06-01 23:46:00,,0829.7,5.00,0.00,28.4,27.5,00.0,37.3,30.3,21.2,0000.0,0003.92,0005.27,0003.72
2022-06-01 23:47:00,,0829.6,5.00,0.00,28.4,27.5,00.0,37.3,30.3,21.1,0000.0,0003.91,0005.19,0003.72
2022-06-01 23:48:00,,0829.6,4.99,0.00,28.4,27.5,00.0,37.3,30.3,21.2,0000.0,0003.90,0005.17,0003.71
2022-06-01 23:49:00,,0829.6,4.99,0.00,28.5,27.5,00.0,37.3,30.3,21.3,0000.0,0003.89,0005.16,0003.71
2022-06-01 23:50:00,,0829.6,5.00,0.00,28.5,27.5,00.0,37.3,30.4,21.3,0000.0,0003.89,0005.18,0003.70
2022-06-01 23:51:00,,0829.6,5.00,0.00,28.5,27.5,00.0,37.3,30.4,20.8,0000.0,0003.88,0005.17,0003.69
2022-06-01 23:52:00,,0829.6,5.01,0.00,28.5,27.5,00.0,37.4,30.4,21.3,0000.0,0003.88,0005.14,0003.67
2022-06-01 23:53:00,,0829.5,5.01,0.00,28.5,27.6,00.0,37.4,30.4,21.3,0000.0,0003.86,0005.10,0003.65
2022-06-01 23:54:00,,0829.6,5.00,0.00,28.5,27.6,00.0,37.4,30.4,21.4,0000.0,0003.83,0005.03,0003.63
2022-06-01 23:55:00,,0829.6,4.99,0.00,28.5,27.6,00.0,37.4,30.4,20.7,0000.0,0003.81,0004.97,0003.63
2022-06-01 23:56:00,,0829.6,5.00,0.00,28.5,27.6,00.0,37.4,30.4,20.8,0000.0,0003.79,0004.86,0003.65
2022-06-01 23:57:00,,0829.6,4.99,0.00,28.5,27.6,00.0,37.4,30.4,20.5,0000.0,0003.80,0004.86,0003.66
2022-06-01 23:58:00,,0829.5,5.01,0.00,28.5,27.6,00.0,37.4,30.4,20.5,0000.0,0003.80,0004.80,0003.67
2022-06-01 23:59:00,,0829.6,5.00,0.00,28.6,27.6,00.0,37.4,30.5,20.4,0000.0,0003.82,0004.88,0003.67
